This demonstration page uses our WeatherBlox Daily Observations layout. Learn more.

39.92423, -83.80882

Hourly Observations for September 10, 2018

Temp ( °F °C ) Dew Point ( °F °C ) Humidity (%) Winds ( mph kmh ) Pressure ( in mb ) Visibility ( mi km ) Precip ( " mm )
12:23 am 00:23 Cloudy with Mist and Fog 61 16 61 16 100 100 NNW 5 7 29.8 1009 3 4.82802 0 0.0254
12:33 am 00:33 Cloudy with Mist and Fog 59 15 59 15 100 100 NNW 5 7 29.83 1010 2.5 4.02335 0 0.0254
12:56 am 00:56 Cloudy with Mist and Fog 59 15 59 15 100 100 NNW 5 7 29.84 1011 3 4.82802 0 0.0254
1:56 am 01:56 Cloudy 59 15 59 15 100 100 WNW 3 6 29.84 1011 8 12.87472 0.01 0.254
2:56 am 02:56 Cloudy with Mist and Fog 59 15 59 15 100 100 W 5 7 29.84 1010 4 6.43736 0 0
3:14 am 03:14 Cloudy with Mist and Fog 59 15 59 15 100 100 W 6 9 29.83 1010 2.5 4.02335 0 0
3:25 am 03:25 Cloudy with Mist and Fog 59 15 59 15 100 100 W 7 11 29.83 1010 5 8.0467 0 0
3:56 am 03:56 Cloudy with Mist and Fog 59 15 59 15 100 100 W 5 7 29.84 1011 1.75 2.816345 0 0
4:24 am 04:24 Cloudy with Mist and Fog 59 15 59 15 100 100 W 5 7 29.85 1011 2.5 4.02335 0 0
4:38 am 04:38 Cloudy with Mist and Fog 59 15 59 15 100 100 W 6 9 29.85 1011 1.75 2.816345 0 0
4:56 am 04:56 Cloudy with Mist and Fog 59 15 59 15 100 100 W 6 9 29.85 1011 2 3.21868 0 0
5:30 am 05:30 Cloudy with Mist and Fog 59 15 59 15 100 100 WSW 7 11 29.85 1011 5 8.0467 0 0
5:56 am 05:56 Cloudy 59 15 59 15 100 100 WSW 6 9 29.85 1011 8 12.87472 0 0
6:13 am 06:13 Cloudy with Mist and Fog 59 15 59 15 100 100 WSW 6 9 29.85 1011 1.75 2.816345 0 0
6:35 am 06:35 Cloudy with Light Rain 59 15 59 15 100 100 W 7 11 29.88 1012 2 3.21868 0.01 0.254
6:56 am 06:56 Cloudy with Light Rain 59 15 59 15 100 100 W 7 11 29.87 1012 2 3.21868 0.01 0.254
7:16 am 07:16 Cloudy with Mist and Fog 57 14 57 14 100 100 WSW 8 13 29.88 1012 1.25 2.011675 0 0.0254
7:54 am 07:54 Cloudy with Mist and Fog 57 14 57 14 100 100 W 7 11 29.88 1012 2 3.21868 0 0.0254
7:56 am 07:56 Cloudy with Mist and Fog 58 14.4 58 14.4 100 100 WSW 6 9 29.89 1012 2.5 4.02335 0 0.0254
8:03 am 08:03 Cloudy with Mist and Fog 57 14 57 14 100 100 WSW 8 13 29.88 1012 5 8.0467 0 0
8:56 am 08:56 Cloudy 58 14.4 58 14.4 100 100 W 9 15 29.91 1013 10 16.0934 0 0
9:45 am 09:45 Cloudy with Mist and Fog 57 14 57 14 100 100 WSW 9 15 29.91 1013 1.75 2.816345 0 0
9:56 am 09:56 Cloudy with Mist and Fog 58 14.4 58 14.4 100 100 W 12 19 29.93 1013 2 3.21868 0 0
10:22 am 10:22 Cloudy with Mist and Fog 57 14 57 14 100 100 W 6 9 29.94 1014 4 6.43736 0 0
10:56 am 10:56 Cloudy with Mist and Fog 58 14.4 58 14.4 100 100 W 10 17 29.95 1014 6 9.65604 0 0
11:56 am 11:56 Cloudy 59 15 57 13.9 93 93 W 9 15 29.96 1015 10 16.0934 0 0
12:34 pm 12:34 Cloudy 61 16 57 14 88 88 W 10 17 29.97 1015 10 16.0934 0 0
12:56 pm 12:56 Cloudy 60 15.6 57 13.9 90 90 W 7 11 29.97 1015 10 16.0934 0 0
1:56 pm 13:56 Cloudy 61 16.1 57 13.9 87 87 W 9 15 29.97 1015 10 16.0934 0 0
2:56 pm 14:56 Cloudy 61 16.1 57 13.9 87 87 W 8 13 29.98 1015 10 16.0934 0 0
3:18 pm 15:18 Cloudy 63 17 57 14 83 83 WNW 9 15 29.97 1015 10 16.0934 0 0
3:30 pm 15:30 Cloudy 63 17 57 14 83 83 W 9 15 29.97 1015 10 16.0934 0 0
3:56 pm 15:56 Cloudy 62 16.7 58 14.4 86 86 W 9 15 29.98 1015 10 16.0934 0 0
4:23 pm 16:23 Cloudy 63 17 57 14 83 83 W 9 15 29.97 1015 10 16.0934 0 0
4:35 pm 16:35 Cloudy 61 16 57 14 88 88 W 7 11 29.97 1015 10 16.0934 0 0
4:56 pm 16:56 Cloudy 62 16.7 58 14.4 86 86 W 8 13 29.98 1015 10 16.0934 0 0
5:44 pm 17:44 Cloudy 61 16 59 15 94 94 Calm 30 1016 10 16.0934 0 0
5:56 pm 17:56 Cloudy 62 16.7 59 15 90 90 W 9 15 29.99 1016 10 16.0934 0 0
6:33 pm 18:33 Cloudy 61 16 59 15 94 94 W 6 9 30 1016 10 16.0934 0 0
6:56 pm 18:56 Cloudy 61 16.1 59 15 93 93 W 6 9 30.01 1016 10 16.0934 0 0
7:37 pm 19:37 Cloudy with Mist and Fog 61 16 61 16 100 100 W 5 7 30.03 1017 2.5 4.02335 0 0
7:47 pm 19:47 Cloudy with Mist and Fog 61 16 61 16 100 100 W 5 7 30.03 1017 4 6.43736 0 0
7:56 pm 19:56 Cloudy 60 15.6 60 15.6 100 100 W 5 7 30.02 1017 9 14.48406 0 0
8:26 pm 20:26 Cloudy 61 16 61 16 100 100 W 5 7 30.03 1017 10 16.0934 0 0
8:56 pm 20:56 Cloudy 60 15.6 60 15.6 100 100 W 3 6 30.04 1017 10 16.0934 0 0
9:56 pm 21:56 Cloudy 60 15.6 60 15.6 100 100 Calm 30.07 1018 10 16.0934 0 0
10:56 pm 22:56 Cloudy 60 15.6 60 15.6 100 100 W 3 6 30.08 1019 10 16.0934 0 0
11:39 pm 23:39 Cloudy 61 16 61 16 100 100 Calm 30.09 1019 8 12.87472 0 0
11:56 pm 23:56 Cloudy 60 15.6 60 15.6 100 100 Calm 30.09 1019 8 12.87472 0 0

Powered by AerisWeather